"startDT [UTC]","vpos","CH4 [ppm]","stdev(CH4) [ppm]","CO2 [ppm]","stdev(CO2) [ppm]","H2O_reported [%]","stdev(H2O_reported)","CavityPressure [torr]","CavityTemp [C]","OutletValve","CH4_dry [ppm]","CO2_dry [ppm]","DasTemp [C]","EtalonTemp [C]","WarmBoxTemp [C]","MPVPosition","T_ECpre [C]","T_EC1 [C]","T_EC2 [C]","p_inlet [hPa]","p_in [hPa]","p_out [hPa]","T_inlet [C]","RH_inlet [%]","dwpt_inlet [C]","T_vent [C]","RH_vent [%]","dwpt_vent [C]","flow_vent [l min-1]","flow_inlet [l min-1]","dwpt_sample [C]","T_room [C]"
2013-10-08 00:00:00,0.0,1.91797,0.00162,397.205,0.106,0.5406,0.0024,140.004,45.000,31556.44524,1.92878,399.849,32.565,45.057,45.000,0.00,0.12,-272.57,-272.63,-20,575,-3,21.8,15.2,-5.8,21.7,15.9,-5.3,5.73,2.46,-3.0,26.5
2013-10-08 00:01:00,0.0,1.91549,0.00101,396.915,0.049,0.5399,0.0022,139.998,45.000,31554.96681,1.92575,399.541,32.563,45.057,45.000,0.00,0.12,-272.57,-272.64,-20,575,-3,21.8,15.2,-5.8,21.7,15.8,-5.3,5.73,2.49,-3.0,26.4
2013-10-08 00:02:00,0.0,1.91506,0.00097,396.638,0.126,0.5366,0.0023,139.996,45.000,31554.79680,1.92542,399.265,32.563,45.057,45.000,0.00,0.12,-272.57,-272.64,-20,575,-3,21.8,15.1,-5.9,21.7,15.8,-5.4,5.73,2.51,-3.0,26.4
2013-10-08 00:03:00,0.0,1.91468,0.00080,396.370,0.126,0.5325,0.0008,139.999,45.000,31555.63449,1.92515,398.972,32.569,45.057,45.000,0.00,0.12,-272.57,-272.64,-20,575,-3,21.8,15.0,-6.0,21.7,15.7,-5.5,5.73,2.52,-3.0,26.4
2013-10-08 00:04:00,0.0,1.91252,0.00068,395.840,0.104,0.5293,0.0020,139.998,45.000,31558.38056,1.92272,398.427,32.565,45.057,45.000,0.00,0.12,-272.57,-272.64,-20,575,-3,21.8,14.9,-6.1,21.7,15.5,-5.6,5.73,2.50,-3.0,26.4
2013-10-08 00:05:00,0.0,1.91225,0.00139,395.699,0.057,0.5254,0.0017,140.001,45.000,31555.64309,1.92256,398.251,32.571,45.057,45.000,0.00,0.12,-272.58,-272.64,-20,575,-3,21.8,14.8,-6.1,21.7,15.4,-5.7,5.73,2.47,-3.0,26.5
2013-10-08 00:06:00,0.0,1.91202,0.00056,395.682,0.046,0.5239,0.0017,140.000,45.000,31556.52755,1.92196,398.211,32.569,45.057,45.000,0.00,0.12,-272.58,-272.64,-20,575,-3,21.8,14.8,-6.2,21.7,15.4,-5.7,5.73,2.46,-3.0,26.5
2013-10-08 00:07:00,0.0,1.91223,0.00089,395.653,0.056,0.5252,0.0020,140.007,45.000,31558.22074,1.92206,398.194,32.570,45.057,45.000,0.00,0.12,-272.57,-272.64,-20,575,-3,21.8,14.8,-6.2,21.7,15.4,-5.7,5.73,2.46,-3.0,26.5
2013-10-08 00:08:00,0.0,1.91278,0.00125,395.633,0.057,0.5285,0.0015,140.001,45.000,31556.25059,1.92294,398.187,32.578,45.057,45.000,0.00,0.12,-272.57,-272.63,-20,575,-3,21.8,14.8,-6.1,21.7,15.5,-5.7,5.73,2.48,-3.0,26.5
2013-10-08 00:09:00,0.0,1.91279,0.00063,395.608,0.032,0.5282,0.0019,140.002,45.000,31556.19937,1.92289,398.165,32.590,45.057,45.000,0.00,0.12,-272.58,-272.64,-20,575,-3,21.8,14.9,-6.1,21.7,15.5,-5.7,5.73,2.51,-3.0,26.5
2013-10-08 00:10:00,0.0,1.91312,0.00085,395.613,0.046,0.5291,0.0012,140.004,45.000,31557.68793,1.92305,398.165,32.592,45.057,45.000,0.00,0.12,-272.57,-272.63,-20,575,-3,21.8,14.9,-6.1,21.7,15.5,-5.6,5.73,2.52,-3.0,26.5
2013-10-08 00:11:00,0.0,1.91387,0.00110,395.784,0.060,0.5287,0.0028,140.004,45.000,31558.00843,1.92433,398.327,32.614,45.057,45.000,0.00,0.12,-272.57,-272.64,-20,575,-3,21.9,14.9,-6.1,21.7,15.5,-5.6,5.73,2.51,-3.0,26.5
2013-10-08 00:12:00,0.0,1.91279,0.00118,395.950,0.049,0.5312,0.0023,139.995,45.000,31556.87724,1.92280,398.513,32.618,45.057,45.000,0.00,0.12,-272.57,-272.64,-20,575,-3,21.9,14.9,-6.0,21.7,15.6,-5.6,5.73,2.47,-3.0,26.5
2013-10-08 00:13:00,0.0,1.91439,0.00028,396.037,0.053,0.5340,0.0021,140.006,45.000,31555.95242,1.92450,398.617,32.625,45.057,45.000,0.00,0.12,-272.58,-272.64,-20,575,-3,21.9,15.0,-6.0,21.7,15.6,-5.5,5.73,2.45,-3.0,26.5
2013-10-08 00:14:00,0.0,1.91465,0.00057,396.162,0.018,0.5342,0.0014,140.004,45.000,31555.19999,1.92475,398.744,32.625,45.057,45.000,0.00,0.12,-272.57,-272.63,-20,575,-3,21.9,15.0,-5.9,21.7,15.6,-5.5,5.73,2.46,-3.0,26.5
2013-10-08 00:15:00,0.0,1.91535,0.00079,396.234,0.054,0.5321,0.0020,139.996,45.000,31554.00564,1.92556,398.801,32.625,45.057,45.000,0.00,0.12,-272.57,-272.64,-20,575,-3,21.9,15.0,-5.9,21.7,15.6,-5.6,5.73,2.48,-3.0,26.5
2013-10-08 00:16:00,0.0,1.91584,0.00067,396.358,0.030,0.5332,0.0019,140.000,45.000,31552.58715,1.92596,398.940,32.625,45.057,45.000,0.00,0.12,-272.57,-272.64,-20,575,-3,21.9,15.0,-6.0,21.7,15.6,-5.6,5.73,2.51,-3.0,26.6
2013-10-08 00:17:00,0.0,1.91579,0.00025,396.460,0.120,0.5339,0.0010,140.003,45.000,31556.93806,1.92607,399.032,32.625,45.057,45.000,0.00,0.12,-272.57,-272.64,-20,575,-3,21.9,15.0,-5.9,21.7,15.6,-5.5,5.73,2.52,-3.0,26.6
2013-10-08 00:18:00,0.0,1.91703,0.00062,396.669,0.081,0.5348,0.0012,139.999,45.000,31554.30604,1.92705,399.256,32.624,45.057,45.000,0.00,0.12,-272.57,-272.64,-20,575,-3,21.9,15.0,-5.9,21.7,15.7,-5.5,5.73,2.51,-3.0,26.6
2013-10-08 00:19:00,0.0,1.91785,0.00032,396.797,0.227,0.5343,0.0020,140.001,45.000,31553.08251,1.92806,399.368,32.625,45.057,45.000,0.00,0.12,-272.57,-272.64,-20,575,-3,21.9,15.0,-5.9,21.7,15.6,-5.5,5.73,2.47,-3.0,26.6
2013-10-08 00:20:00,0.0,1.91895,0.00022,397.025,0.017,0.5390,0.0016,139.998,45.000,31552.55839,1.92918,399.636,32.625,45.057,45.000,0.00,0.12,-272.57,-272.64,-20,575,-3,21.9,15.1,-5.8,21.7,15.8,-5.4,5.73,2.45,-3.0,26.6
2013-10-08 00:21:00,0.0,1.91910,0.00058,396.976,0.104,0.5378,0.0011,139.998,45.000,31555.65663,1.92945,399.584,32.625,45.057,45.000,0.00,0.12,-272.57,-272.63,-20,575,-3,21.9,15.1,-5.8,21.7,15.7,-5.4,5.73,2.45,-3.0,26.6
2013-10-08 00:22:00,0.0,1.91970,0.00116,397.198,0.100,0.5385,0.0013,140.005,45.000,31558.21856,1.92988,399.804,32.625,45.057,45.000,0.00,0.12,-272.58,-272.64,-20,575,-3,21.9,15.0,-5.8,21.7,15.7,-5.5,5.73,2.48,-3.0,26.6
2013-10-08 00:23:00,0.0,1.91997,0.00067,397.127,0.100,0.5367,0.0019,140.003,45.000,31559.23033,1.93044,399.748,32.626,45.057,45.000,0.00,0.12,-272.57,-272.64,-20,575,-3,21.9,15.0,-5.9,21.7,15.7,-5.4,5.73,2.51,-3.0,26.6
2013-10-08 00:24:00,0.0,1.91876,0.00112,396.987,0.080,0.5335,0.0009,140.001,45.000,31557.15173,1.92895,399.572,32.625,45.057,45.000,0.00,0.12,-272.57,-272.63,-20,575,-3,21.9,14.9,-5.9,21.7,15.6,-5.5,5.73,2.52,-3.0,26.6
2013-10-08 00:25:00,0.0,1.91924,0.00098,397.082,0.064,0.5316,0.0021,139.997,45.000,31556.81786,1.92956,399.665,32.645,45.057,45.000,0.00,0.12,-272.57,-272.64,-20,575,-3,22.0,14.9,-6.0,21.7,15.5,-5.6,5.73,2.50,-3.0,26.5
2013-10-08 00:26:00,0.0,1.92004,0.00121,397.092,0.062,0.5319,0.0016,140.006,45.000,31560.05614,1.93002,399.664,32.657,45.057,45.000,0.00,0.12,-272.57,-272.64,-20,575,-3,21.9,14.9,-6.0,21.8,15.5,-5.6,5.73,2.47,-3.0,26.6
2013-10-08 00:27:00,0.0,1.91957,0.00102,396.958,0.090,0.5333,0.0019,140.002,45.000,31557.38592,1.93007,399.569,32.680,45.057,45.000,0.00,0.12,-272.57,-272.64,-20,575,-3,22.0,14.9,-5.9,21.8,15.6,-5.5,5.73,2.45,-3.0,26.6
2013-10-08 00:28:00,0.0,1.91730,0.00076,396.718,0.044,0.5322,0.0023,140.000,45.000,31559.37773,1.92767,399.306,32.686,45.057,45.000,0.00,0.12,-272.57,-272.64,-20,575,-3,22.0,14.9,-6.0,21.8,15.5,-5.6,5.73,2.46,-3.0,26.7
2013-10-08 00:29:00,0.0,1.91745,0.00042,396.846,0.051,0.5309,0.0013,140.004,45.000,31562.65863,1.92760,399.412,32.685,45.057,45.000,0.00,0.12,-272.57,-272.64,-20,575,-3,22.0,14.8,-6.0,21.8,15.5,-5.6,5.73,2.49,-3.0,26.7
2013-10-08 00:30:00,0.0,1.91751,0.00061,396.761,0.051,0.5311,0.0018,139.997,45.000,31560.33543,1.92760,399.341,32.688,45.057,45.000,0.00,0.12,-272.57,-272.64,-20,575,-3,22.0,14.8,-6.0,21.8,15.5,-5.6,5.73,2.51,-3.0,26.7
2013-10-08 00:31:00,0.0,1.91806,0.00058,396.863,0.120,0.5311,0.0019,140.003,45.000,31562.60399,1.92822,399.426,32.688,45.057,45.000,0.00,0.12,-272.57,-272.64,-20,575,-3,22.0,14.8,-6.0,21.8,15.5,-5.6,5.73,2.52,-3.0,26.7
2013-10-08 00:32:00,0.0,1.91821,0.00075,396.761,0.118,0.5313,0.0009,140.001,45.000,31561.05123,1.92837,399.350,32.688,45.057,45.000,0.00,0.12,-272.57,-272.64,-20,575,-3,22.0,14.8,-6.0,21.8,15.5,-5.6,5.73,2.50,-3.0,26.8
2013-10-08 00:33:00,0.0,1.91738,0.00154,396.683,0.225,0.5327,0.0019,139.999,45.000,31561.92978,1.92778,399.279,32.688,45.057,45.000,0.00,0.12,-272.57,-272.64,-20,575,-3,22.0,14.8,-6.0,21.8,15.5,-5.6,5.73,2.47,-3.0,26.8
2013-10-08 00:34:00,0.0,1.91781,0.00188,396.725,0.162,0.5305,0.0012,140.004,45.000,31563.84543,1.92779,399.279,32.681,45.057,45.000,0.00,0.12,-272.57,-272.64,-20,575,-3,22.0,14.8,-6.0,21.8,15.5,-5.6,5.73,2.45,-3.0,26.8
2013-10-08 00:35:00,0.0,1.91645,0.00189,396.629,0.101,0.5329,0.0025,139.995,45.000,31557.84492,1.92697,399.220,32.670,45.057,45.000,0.00,0.12,-272.57,-272.64,-20,575,-3,22.0,14.8,-5.9,21.8,15.5,-5.6,5.73,2.46,-3.0,26.8
2013-10-08 00:36:00,0.0,1.91778,0.00128,396.782,0.111,0.5364,0.0026,140.000,45.000,31558.51664,1.92779,399.383,32.646,45.057,45.000,0.00,0.12,-272.58,-272.64,-21,575,-3,22.0,14.9,-5.9,21.8,15.6,-5.5,5.73,2.47,-3.0,26.8
2013-10-08 00:37:00,0.0,1.91477,0.00277,396.093,0.318,0.5379,0.0029,139.997,45.000,31560.96991,1.92536,398.739,32.630,45.057,45.000,0.00,0.12,-272.57,-272.63,-21,575,-4,22.0,14.9,-5.8,21.8,15.6,-5.4,5.73,2.49,-3.0,26.8
2013-10-08 00:38:00,0.0,1.91755,0.00340,396.234,0.227,0.5351,0.0022,140.004,45.000,31563.28399,1.92745,398.818,32.641,45.057,45.001,0.00,0.12,-272.57,-272.63,-20,575,-3,22.0,14.9,-5.9,21.8,15.6,-5.5,5.73,2.50,-3.0,26.8
2013-10-08 00:39:00,0.0,1.92638,0.00402,396.819,0.228,0.5344,0.0012,140.001,45.000,31564.46208,1.93503,399.346,32.631,45.057,45.000,0.00,0.12,-272.57,-272.64,-20,575,-3,22.1,14.8,-5.9,21.8,15.5,-5.5,5.73,2.52,-3.0,26.9
2013-10-08 00:40:00,0.0,1.92383,0.00534,396.804,0.225,0.5348,0.0019,140.002,45.000,31561.83888,1.93558,399.426,32.636,45.057,45.000,0.00,0.12,-272.57,-272.64,-21,575,-4,22.1,14.9,-5.9,21.8,15.6,-5.5,5.73,2.51,-3.0,26.9
2013-10-08 00:41:00,0.0,1.90779,0.00248,395.259,0.262,0.5325,0.0031,140.000,45.000,31560.12097,1.91936,397.920,32.659,45.057,45.000,0.00,0.12,-272.57,-272.64,-21,575,-4,22.1,14.8,-5.9,21.8,15.5,-5.5,5.73,2.48,-3.0,26.9
2013-10-08 00:42:00,0.0,1.91843,0.00468,395.997,0.411,0.5292,0.0028,140.007,45.000,31564.41860,1.92678,398.469,32.646,45.057,45.000,0.00,0.12,-272.57,-272.64,-21,575,-4,22.1,14.7,-6.0,21.9,15.4,-5.6,5.73,2.46,-3.0,26.9
2013-10-08 00:43:00,0.0,1.91428,0.00280,395.786,0.162,0.5277,0.0027,140.010,45.000,31564.71696,1.92489,398.378,32.674,45.057,45.000,0.00,0.12,-272.57,-272.64,-21,575,-4,22.1,14.7,-6.0,21.8,15.4,-5.6,5.73,2.45,-3.0,26.9
2013-10-08 00:44:00,0.0,1.91209,0.00398,395.631,0.329,0.5292,0.0009,139.999,45.000,31562.67802,1.92309,398.229,32.666,45.057,45.000,0.00,0.12,-272.57,-272.64,-21,575,-4,22.1,14.6,-6.1,21.8,15.3,-5.7,5.73,2.47,-3.0,26.9
2013-10-08 00:45:00,0.0,1.91169,0.00309,395.467,0.163,0.5243,0.0018,139.996,45.000,31562.48061,1.92184,398.009,32.673,45.057,45.000,0.00,0.12,-272.57,-272.64,-21,576,-4,22.1,14.5,-6.2,21.9,15.2,-5.8,5.73,2.49,-3.0,26.9
2013-10-08 00:46:00,0.0,1.90827,0.00165,395.243,0.095,0.5219,0.0022,140.007,45.000,31565.71416,1.91825,397.756,32.676,45.057,45.000,0.00,0.12,-272.57,-272.64,-21,576,-4,22.1,14.5,-6.2,21.9,15.1,-5.8,5.73,2.50,-3.0,26.9
2013-10-08 00:47:00,0.0,1.90954,0.00085,395.460,0.093,0.5202,0.0021,140.003,45.000,31565.56202,1.91919,397.951,32.674,45.057,45.000,0.00,0.12,-272.58,-272.64,-21,576,-4,22.1,14.4,-6.3,21.9,15.0,-5.9,5.73,2.51,-3.0,26.9
2013-10-08 00:48:00,0.0,1.91192,0.00083,395.692,0.042,0.5189,0.0014,140.002,45.000,31565.46012,1.92175,398.195,32.676,45.057,45.000,0.00,0.12,-272.57,-272.63,-21,576,-4,22.1,14.3,-6.3,21.9,15.0,-5.9,5.73,2.51,-3.0,26.9
2013-10-08 00:49:00,0.0,1.91096,0.00096,395.550,0.049,0.5171,0.0012,140.000,45.000,31566.59586,1.92088,398.058,32.658,45.057,45.000,0.00,0.12,-272.58,-272.64,-21,576,-3,22.2,14.3,-6.3,21.9,14.9,-6.0,5.73,2.49,-3.0,26.9
2013-10-08 00:50:00,0.0,1.91118,0.00164,395.443,0.152,0.5173,0.0025,139.995,45.000,31567.84880,1.92107,397.957,32.632,45.057,45.000,0.00,0.12,-272.58,-272.64,-21,576,-4,22.2,14.3,-6.3,21.9,14.9,-6.0,5.73,2.48,-3.0,27.0
2013-10-08 00:51:00,0.0,1.91069,0.00221,395.440,0.144,0.5170,0.0024,140.007,45.000,31571.21258,1.92083,397.944,32.632,45.057,45.000,0.00,0.12,-272.57,-272.64,-21,576,-4,22.2,14.2,-6.4,21.9,14.9,-6.0,5.73,2.46,-3.0,27.0
2013-10-08 00:52:00,0.0,1.90745,0.00107,394.960,0.104,0.5164,0.0021,140.006,45.000,31571.64256,1.91754,397.472,32.625,45.057,45.000,0.00,0.12,-272.57,-272.64,-21,576,-3,22.2,14.2,-6.4,21.9,14.8,-6.0,5.73,2.45,-2.9,27.0
2013-10-08 00:53:00,0.0,1.90799,0.00225,394.796,0.093,0.5159,0.0012,140.003,45.000,31570.06951,1.91762,397.285,32.625,45.057,45.000,0.00,0.12,-272.57,-272.64,-21,576,-4,22.2,14.2,-6.4,21.9,14.8,-6.0,5.73,2.46,-3.0,27.0
2013-10-08 00:54:00,0.0,1.90499,0.00126,394.418,0.149,0.5154,0.0018,140.005,45.000,31571.72715,1.91532,396.939,32.625,45.057,45.000,0.00,0.12,-272.57,-272.63,-21,576,-4,22.2,14.2,-6.4,22.0,14.8,-6.0,5.73,2.48,-3.0,27.0
2013-10-08 00:55:00,0.0,1.90535,0.00133,394.405,0.148,0.5131,0.0017,139.998,45.000,31570.04588,1.91513,396.872,32.625,45.057,45.000,0.00,0.12,-272.57,-272.63,-21,576,-4,22.2,14.2,-6.4,22.0,14.8,-6.0,5.73,2.49,-3.0,26.9
2013-10-08 00:56:00,0.0,1.90397,0.00146,394.210,0.163,0.5128,0.0015,140.004,45.000,31571.42668,1.91375,396.681,32.625,45.057,45.000,0.00,0.12,-272.57,-272.64,-21,576,-4,22.2,14.1,-6.5,22.0,14.7,-6.1,5.73,2.50,-2.9,27.0
2013-10-08 00:57:00,0.0,1.90722,0.00146,394.511,0.108,0.5124,0.0012,140.000,45.000,31569.35829,1.91661,396.962,32.625,45.057,45.000,0.00,0.12,-272.57,-272.64,-21,576,-4,22.2,14.1,-6.5,22.0,14.7,-6.1,5.73,2.51,-3.0,27.0
2013-10-08 00:58:00,0.0,1.90626,0.00087,394.441,0.040,0.5114,0.0023,140.000,45.000,31571.27491,1.91593,396.908,32.625,45.057,45.000,0.00,0.12,-272.57,-272.63,-21,576,-4,22.2,14.1,-6.5,22.0,14.7,-6.1,5.73,2.50,-2.9,27.0
2013-10-08 00:59:00,0.0,1.90926,0.00103,394.570,0.049,0.5105,0.0019,139.996,45.000,31569.92082,1.91864,397.022,32.597,45.057,45.000,0.00,0.12,-272.57,-272.64,-21,576,-4,22.3,14.0,-6.5,22.0,14.7,-6.1,5.73,2.49,-3.0,27.0
2013-10-08 01:00:00,0.0,1.90931,0.00174,394.617,0.086,0.5116,0.0007,140.004,45.000,31570.18893,1.91886,397.071,32.590,45.057,45.000,0.00,0.12,-272.58,-272.64,-21,576,-4,22.3,14.0,-6.5,22.0,14.6,-6.1,5.73,2.48,-3.0,27.0
2013-10-08 01:01:00,0.0,1.91014,0.00093,394.703,0.043,0.5086,0.0009,139.999,45.000,31569.85957,1.92001,397.158,32.568,45.057,45.000,0.00,0.12,-272.57,-272.63,-21,576,-4,22.3,13.9,-6.5,22.1,14.6,-6.1,5.73,2.47,-2.9,27.0
2013-10-08 01:02:00,0.0,1.91006,0.00033,394.762,0.034,0.5088,0.0006,140.003,45.000,31571.82113,1.91986,397.217,32.563,45.057,45.000,0.00,0.12,-272.57,-272.63,-21,576,-4,22.3,13.9,-6.5,22.1,14.6,-6.2,5.73,2.46,-3.0,27.0
2013-10-08 01:03:00,0.0,1.90870,0.00082,394.556,0.058,0.5107,0.0017,140.000,45.000,31572.10997,1.91852,397.021,32.563,45.057,45.000,0.00,0.12,-272.57,-272.64,-21,576,-4,22.3,14.0,-6.5,22.1,14.6,-6.1,5.73,2.46,-2.9,27.1
2013-10-08 01:04:00,0.0,1.90626,0.00166,394.314,0.212,0.5108,0.0007,140.002,45.000,31575.37455,1.91666,396.818,32.563,45.057,45.000,0.00,0.12,-272.57,-272.63,-21,576,-4,22.3,14.0,-6.5,22.1,14.6,-6.1,5.73,2.47,-3.0,27.0
2013-10-08 01:05:00,0.0,1.90339,0.00054,393.977,0.044,0.5126,0.0026,140.002,45.000,31574.97021,1.91321,396.436,32.563,45.057,45.000,0.00,0.12,-272.57,-272.64,-20,576,-3,22.3,14.0,-6.5,22.1,14.6,-6.1,5.73,2.48,-2.9,27.1
2013-10-08 01:06:00,0.0,1.90320,0.00038,393.956,0.042,0.5112,0.0013,139.999,45.000,31577.02662,1.91282,396.423,32.563,45.057,45.000,0.00,0.12,-272.57,-272.63,-20,577,-3,22.3,14.0,-6.5,22.1,14.6,-6.1,5.73,2.50,-2.9,27.1
2013-10-08 01:07:00,0.0,1.90435,0.00026,394.072,0.043,0.5099,0.0022,140.002,45.000,31576.06073,1.91396,396.516,32.563,45.057,45.000,0.00,0.12,-272.57,-272.64,-25,575,-1,22.4,13.9,-6.5,22.1,14.5,-6.1,5.73,2.51,-2.9,27.1
2013-10-08 01:08:00,0.0,1.90545,0.00056,394.270,0.047,0.5089,0.0022,140.002,45.000,31578.62325,1.91504,396.709,32.563,45.057,45.000,0.00,0.12,-272.57,-272.63,-20,580,-4,22.4,13.9,-6.6,22.1,14.5,-6.2,5.73,2.50,-2.9,27.1
2013-10-08 01:09:00,0.0,1.90513,0.00018,394.251,0.069,0.5066,0.0019,140.003,45.000,31577.01050,1.91485,396.695,32.571,45.057,45.000,0.00,0.12,-272.57,-272.63,-21,576,-4,22.4,13.8,-6.6,22.1,14.4,-6.2,5.73,2.48,-2.9,27.0
2013-10-08 01:10:00,0.0,1.90473,0.00070,394.324,0.107,0.5058,0.0021,140.003,45.000,31576.42892,1.91447,396.760,32.564,45.057,45.000,0.00,0.12,-272.57,-272.64,-21,576,-4,22.4,13.8,-6.6,22.1,14.4,-6.2,5.73,2.46,-2.9,27.1
2013-10-08 01:11:00,0.0,1.90484,0.00085,394.240,0.088,0.4987,0.0032,140.006,45.000,31577.19825,1.91428,396.646,32.580,45.057,45.000,0.00,0.12,-272.57,-272.64,-21,577,-4,22.4,13.6,-6.8,22.1,14.2,-6.4,5.73,2.45,-2.9,27.1
2013-10-08 01:12:00,0.0,1.90607,0.00049,394.223,0.030,0.4929,0.0024,140.008,45.000,31577.63346,1.91531,396.593,32.592,45.057,45.000,0.00,0.12,-272.57,-272.63,-21,577,-4,22.4,13.4,-7.0,22.2,14.0,-6.6,5.73,2.46,-2.9,27.1
2013-10-08 01:13:00,0.0,1.90649,0.00040,394.225,0.045,0.4874,0.0024,140.004,45.000,31575.52646,1.91566,396.575,32.620,45.057,45.000,0.00,0.12,-272.57,-272.64,-21,576,-4,22.4,13.3,-7.1,22.2,13.9,-6.7,5.73,2.49,-2.9,27.1
2013-10-08 01:14:00,0.0,1.90757,0.00025,394.318,0.023,0.4831,0.0010,139.996,45.000,31575.03704,1.91666,396.634,32.625,45.057,45.000,0.00,0.12,-272.57,-272.64,-21,577,-4,22.4,13.2,-7.2,22.2,13.8,-6.8,5.73,2.51,-2.9,27.1
2013-10-08 01:15:00,0.0,1.90762,0.00049,394.324,0.043,0.4805,0.0018,140.001,45.000,31576.20028,1.91679,396.643,32.625,45.057,45.000,0.00,0.12,-272.57,-272.63,-21,577,-4,22.4,13.1,-7.3,22.2,13.7,-6.9,5.73,2.51,-2.9,27.1
2013-10-08 01:16:00,0.0,1.90768,0.00040,394.307,0.054,0.4806,0.0013,140.003,45.000,31577.57051,1.91685,396.622,32.631,45.057,45.000,0.00,0.12,-272.57,-272.64,-21,576,-4,22.4,13.1,-7.3,22.2,13.6,-6.9,5.73,2.49,-2.9,27.1
2013-10-08 01:17:00,0.0,1.90669,0.00076,394.269,0.044,0.4792,0.0015,139.998,45.000,31577.21602,1.91614,396.574,32.665,45.057,45.000,0.00,0.12,-272.57,-272.63,-21,576,-4,22.4,13.1,-7.3,22.2,13.6,-6.9,5.73,2.46,-2.9,27.1
2013-10-08 01:18:00,0.0,1.90598,0.00066,394.185,0.046,0.4816,0.0016,140.002,45.000,31579.74536,1.91502,396.507,32.679,45.057,45.000,0.00,0.12,-272.57,-272.64,-21,576,-4,22.4,13.1,-7.3,22.2,13.7,-6.9,5.73,2.45,-2.9,27.1
2013-10-08 01:19:00,0.0,1.90568,0.00034,394.109,0.029,0.4832,0.0014,140.005,45.000,31578.53931,1.91489,396.432,32.687,45.056,45.000,0.00,0.12,-272.57,-272.63,-21,576,-4,22.4,13.2,-7.2,22.2,13.7,-6.8,5.73,2.47,-2.9,27.1
2013-10-08 01:20:00,0.0,1.90539,0.00023,394.020,0.049,0.4847,0.0014,140.006,45.000,31579.83991,1.91460,396.359,32.688,45.057,45.000,0.00,0.12,-272.57,-272.64,-21,576,-4,22.4,13.2,-7.2,22.2,13.8,-6.8,5.73,2.50,-2.9,27.1
2013-10-08 01:21:00,0.0,1.90483,0.00063,393.995,0.038,0.4849,0.0020,140.005,45.000,31579.32550,1.91424,396.323,32.688,45.057,45.000,0.00,0.12,-272.57,-272.64,-21,576,-4,22.4,13.2,-7.2,22.2,13.8,-6.8,5.73,2.51,-2.9,27.1
2013-10-08 01:22:00,0.0,1.90399,0.00034,393.896,0.041,0.4873,0.0008,140.000,45.000,31579.81935,1.91322,396.246,32.691,45.057,45.000,0.00,0.12,-272.57,-272.63,-21,576,-4,22.4,13.2,-7.1,22.2,13.8,-6.7,5.73,2.51,-2.9,27.1
2013-10-08 01:23:00,0.0,1.90419,0.00037,393.920,0.026,0.4869,0.0015,140.001,45.000,31578.11843,1.91343,396.256,32.697,45.057,45.000,0.00,0.12,-272.57,-272.64,-21,577,-4,22.4,13.3,-7.1,22.2,13.8,-6.7,5.73,2.48,-2.9,27.1
2013-10-08 01:24:00,0.0,1.90371,0.00060,393.893,0.059,0.4859,0.0014,139.997,45.000,31580.11923,1.91299,396.231,32.700,45.057,45.000,0.00,0.12,-272.57,-272.64,-21,577,-4,22.4,13.2,-7.2,22.2,13.8,-6.7,5.73,2.46,-2.9,27.1
2013-10-08 01:25:00,0.0,1.90362,0.00036,393.820,0.046,0.4867,0.0011,140.000,45.000,31581.51456,1.91293,396.166,32.707,45.057,45.000,0.00,0.12,-272.57,-272.63,-21,577,-4,22.4,13.3,-7.1,22.2,13.8,-6.7,5.73,2.45,-2.9,27.0
2013-10-08 01:26:00,0.0,1.90367,0.00047,393.797,0.013,0.4871,0.0015,140.004,45.000,31580.45317,1.91289,396.136,32.704,45.057,45.000,0.00,0.12,-272.57,-272.63,-21,577,-4,22.4,13.2,-7.1,22.2,13.8,-6.7,5.73,2.46,-2.9,27.0
2013-10-08 01:27:00,0.0,1.90303,0.00058,393.751,0.037,0.4880,0.0021,140.000,45.000,31578.41080,1.91241,396.098,32.688,45.057,45.000,0.00,0.12,-272.57,-272.64,-21,577,-4,22.5,13.2,-7.1,22.2,13.8,-6.7,5.73,2.49,-2.9,27.1
2013-10-08 01:28:00,0.0,1.90373,0.00038,393.826,0.060,0.4842,0.0021,140.002,45.000,31583.82805,1.91287,396.151,32.687,45.057,45.000,0.00,0.12,-272.57,-272.63,-21,577,-4,22.5,13.1,-7.2,22.2,13.7,-6.8,5.73,2.51,-2.9,27.1
2013-10-08 01:29:00,0.0,1.90360,0.00039,393.763,0.040,0.4827,0.0008,140.009,45.000,31584.66988,1.91267,396.092,32.688,45.057,45.000,0.00,0.12,-272.57,-272.64,-21,577,-4,22.5,13.1,-7.2,22.3,13.7,-6.9,5.73,2.52,-2.9,27.2
2013-10-08 01:30:00,0.0,1.90379,0.00082,393.731,0.035,0.4831,0.0016,140.003,45.000,31583.78456,1.91307,396.050,32.688,45.057,45.000,0.00,0.12,-272.57,-272.64,-21,577,-4,22.5,13.0,-7.3,22.3,13.6,-6.9,5.73,2.49,-2.8,27.2
2013-10-08 01:31:00,0.0,1.90343,0.00058,393.741,0.032,0.4803,0.0009,139.991,45.000,31581.53399,1.91247,396.046,32.688,45.057,45.000,0.00,0.12,-272.57,-272.63,-21,577,-4,22.5,13.0,-7.3,22.3,13.6,-6.9,5.73,2.46,-2.8,27.2
2013-10-08 01:32:00,0.0,1.90386,0.00050,393.769,0.029,0.4791,0.0011,140.002,45.000,31585.76460,1.91291,396.072,32.688,45.057,45.000,0.00,0.12,-272.57,-272.63,-22,577,-4,22.5,13.0,-7.3,22.3,13.5,-7.0,5.73,2.44,-2.8,27.2
2013-10-08 01:33:00,0.0,1.90454,0.00037,393.808,0.029,0.4777,0.0005,140.001,45.000,31584.84805,1.91363,396.105,32.690,45.057,45.000,0.00,0.12,-272.57,-272.64,-21,577,-4,22.5,12.9,-7.4,22.2,13.5,-7.1,5.73,2.46,-2.8,27.2
2013-10-08 01:34:00,0.0,1.90477,0.00059,393.776,0.042,0.4748,0.0008,140.003,45.000,31584.42833,1.91370,396.052,32.688,45.057,45.000,0.00,0.12,-272.57,-272.64,-22,577,-4,22.5,12.8,-7.4,22.3,13.4,-7.1,5.73,2.49,-2.8,27.2
2013-10-08 01:35:00,0.0,1.90477,0.00042,393.763,0.048,0.4726,0.0017,139.993,45.000,31582.82465,1.91382,396.038,32.688,45.057,45.000,0.00,0.12,-272.56,-272.63,-22,577,-4,22.5,12.8,-7.5,22.3,13.3,-7.1,5.73,2.51,-2.8,27.2
2013-10-08 01:36:00,0.0,1.90500,0.00053,393.731,0.021,0.4726,0.0024,140.001,45.000,31586.17466,1.91399,396.004,32.695,45.057,45.000,0.00,0.12,-272.57,-272.63,-21,577,-4,22.5,12.7,-7.5,22.3,13.3,-7.1,5.73,2.52,-2.8,27.2
2013-10-08 01:37:00,0.0,1.90485,0.00036,393.767,0.032,0.4706,0.0010,140.003,45.000,31588.06029,1.91372,396.025,32.692,45.057,45.000,0.00,0.12,-272.57,-272.64,-22,577,-4,22.6,12.7,-7.6,22.3,13.2,-7.2,5.73,2.49,-2.8,27.2
2013-10-08 01:38:00,0.0,1.90388,0.00076,393.640,0.079,0.4701,0.0017,140.002,45.000,31591.13021,1.91310,395.908,32.689,45.057,45.000,0.00,0.12,-272.57,-272.64,-21,577,-4,22.6,12.7,-7.6,22.4,13.2,-7.2,5.73,2.46,-2.8,27.2
2013-10-08 01:39:00,0.0,1.90444,0.00058,393.666,0.066,0.4704,0.0013,139.997,45.000,31587.29014,1.91317,395.917,32.695,45.057,45.000,0.00,0.12,-272.57,-272.64,-22,577,-7,22.6,12.7,-7.6,22.4,13.2,-7.2,5.73,2.44,-2.8,27.2
2013-10-08 01:40:00,0.0,1.90525,0.00036,393.773,0.051,0.4686,0.0016,140.000,45.000,31588.55798,1.91404,396.020,32.690,45.057,45.000,0.00,0.12,-272.57,-272.64,-22,580,-6,22.6,12.6,-7.6,22.4,13.2,-7.2,5.73,2.46,-2.8,27.2
2013-10-08 01:41:00,0.0,1.90364,0.00167,393.530,0.211,0.4698,0.0022,140.006,45.000,31591.26973,1.91292,395.806,32.695,45.057,45.000,0.00,0.12,-272.57,-272.63,-21,577,-4,22.6,12.7,-7.6,22.4,13.2,-7.2,5.73,2.49,-2.8,27.2
2013-10-08 01:42:00,0.0,1.90068,0.00086,392.916,0.123,0.4728,0.0022,140.002,45.000,31590.15747,1.90999,395.216,32.688,45.057,45.000,0.00,0.12,-272.57,-272.63,-22,577,-4,22.6,12.7,-7.5,22.4,13.3,-7.1,5.73,2.51,-2.8,27.2
2013-10-08 01:43:00,0.0,1.90027,0.00056,392.851,0.055,0.4714,0.0005,140.006,45.000,31591.44158,1.90908,395.100,32.682,45.057,45.000,0.00,0.12,-272.57,-272.63,-22,577,-5,22.6,12.7,-7.5,22.4,13.2,-7.2,5.73,2.51,-2.8,27.2
2013-10-08 01:44:00,0.0,1.90096,0.00071,392.863,0.042,0.4706,0.0012,140.000,45.000,31590.63258,1.90999,395.119,32.688,45.057,45.000,0.00,0.12,-272.57,-272.63,-22,577,-4,22.6,12.7,-7.5,22.4,13.2,-7.2,5.73,2.49,-2.8,27.2
2013-10-08 01:45:00,0.0,1.90091,0.00110,392.785,0.134,0.4707,0.0017,140.005,45.000,31594.92202,1.90976,395.044,32.684,45.057,45.000,0.00,0.12,-272.57,-272.63,-22,577,-5,22.6,12.7,-7.5,22.4,13.2,-7.2,5.73,2.47,-2.8,27.2
2013-10-08 01:46:00,0.0,1.90010,0.00091,392.720,0.122,0.4699,0.0020,139.999,45.000,31593.46484,1.90924,394.993,32.686,45.057,45.000,0.00,0.12,-272.57,-272.63,-22,577,-4,22.6,12.6,-7.6,22.4,13.1,-7.2,5.73,2.46,-2.8,27.2